[[{"header":{"parameterUnit":"m.s-1","parameterCategory":1,"la1":30.2991,"la2":30.254,"lo1":-89.0895,"lo2":-89.0444,"dy":0.0017,"dx":0.0017,"nx":28,"ny":28,"refTime":"2025-02-08T03:00:00:Z","depth":0,"parameterNumber":2,"parameterNumberName":"U-component_of_WINDS"},"data":[0,0,0,0,0,0,0,0,0,0,0,0,0,0,0,0,0,0,0,0,0,0,0,0,0,0,0,0,0,0,0,0,0,0,0,0,0,0,0,0,0,0,0,0,0,0,0,0,0,0,0,0,0,0,0,0,0,0,0.4094,0.4094,0,0.4121,0.4121,0.4121,0.4121,0.412,0.412,0.4119,0.4148,0.4149,0.4151,0,0,0,0,0,0,0,0,0,0,0,0,0,0.4043,0.4044,0.4094,0.4094,0.4094,0.412,0.4121,0.4121,0.4121,0.412,0.412,0.4119,0.4148,0.4149,0.4151,0,0,0,0,0,0,0,0,0,0,0,0,0,0.4067,0.4044,0.4094,0.4097,0.4098,0.412,0.4121,0.4121,0.4121,0.412,0.412,0.4119,0.4148,0.4149,0.4151,0.4172,0,0,0.4156,0.4157,0,0,0,0,0,0,0,0,0.4065,0.4069,0.4096,0.4097,0.4098,0.4117,0.4113,0.4138,0.4121,0.4112,0.4119,0.4119,0.4138,0.4141,0.4147,0.4174,0.4175,0.4156,0.4157,0.4158,0.4158,0,0,0,0,0,0,0,0.4064,0.4068,0.4104,0.4097,0.4097,0.4098,0.4101,0.4118,0.4128,0.4113,0.4113,0.4116,0.4139,0.4145,0.4148,0.4175,0.4156,0.4158,0.4159,0.4159,0.422,0.4221,0,0,0,0,0,0,0.4061,0.4066,0.4103,0.4105,0.408,0.4099,0.4102,0.4111,0.4128,0.413,0.4116,0.4116,0.4143,0.4146,0.4149,0.4175,0.4158,0.4159,0.416,0.422,0.4221,0.4221,0,0,0,0,0,0,0.406,0.4065,0.4102,0.4086,0.409,0.4101,0.411,0.4112,0.4119,0.413,0.4132,0.4121,0.4143,0.4146,0.4166,0.4176,0.416,0.4162,0.4219,0.422,0.4221,0.4227,0,0,0,0,0,0,0.4059,0.4064,0.4072,0.4086,0.4091,0.4119,0.4111,0.4113,0.4121,0.4121,0.4136,0.4138,0.4142,0.4164,0.4168,0.4178,0.4163,0.4218,0.422,0.4221,0.4226,0.4228,0.423,0,0,0,0,0,0.4057,0.4073,0.4072,0.4077,0.4101,0.412,0.4123,0.4128,0.4122,0.413,0.4138,0.4137,0.4174,0.4166,0.417,0.4181,0.4218,0.4219,0.4221,0.4225,0.4228,0.423,0,0,0,0,0,0,0.4061,0.4075,0.4074,0.4096,0.4106,0.412,0.413,0.413,0.4143,0.4142,0.4148,0.4151,0.4171,0.4178,0.4169,0.4203,0.4195,0.4198,0.4197,0.42,0.4202,0.42,0.4164,0,0,0,0,0,0.4064,0.4077,0.4089,0.4107,0.4112,0.412,0.4128,0.4131,0.4142,0.4147,0.4156,0.4168,0.4182,0.4191,0.4205,0.4227,0.423,0.4237,0.4239,0.424,0.4242,0.4255,0.4258,0.4226,0.4226,0.4226,0,0,0.4071,0.408,0.4088,0.4108,0.4116,0.413,0.4124,0.4139,0.415,0.415,0.4169,0.4176,0.4189,0.421,0.422,0.4217,0.4252,0.4242,0.4243,0.4244,0.4256,0.4259,0.4262,0.4227,0.4227,0.4227,0,0,0.4091,0.4099,0.4115,0.4123,0.4137,0.4142,0.4145,0.4159,0.4163,0.4182,0.4183,0.4195,0.422,0.4229,0.4237,0.426,0.426,0.4264,0.4275,0.4287,0.4289,0.4291,0.43,0.4303,0.4267,0.4267,0.4267,0,0.4098,0.4119,0.4123,0.4138,0.4146,0.4146,0.4162,0.4171,0.4188,0.4194,0.419,0.422,0.4229,0.4252,0.4258,0.4264,0.4269,0.4263,0.4288,0.4291,0.4293,0.4301,0.4304,0.4267,0.4267,0.4267,0.4267,0,0.4127,0.4142,0.4153,0.4169,0.4178,0.4194,0.42,0.421,0.4211,0.4217,0.4237,0.4247,0.4263,0.4269,0.4271,0.4293,0.429,0.4287,0.428,0.4296,0.4304,0.4307,0.4268,0.4268,0.4267,0.4267,0,0,0.4151,0.4169,0.4173,0.418,0.4194,0.4206,0.4221,0.4236,0.4244,0.4256,0.4269,0.4289,0.4287,0.4296,0.4299,0.4309,0.4327,0.4305,0.4305,0.4309,0.4351,0.4354,0.4357,0.4326,0.4327,0.4328,0.435,0,0.4173,0.42,0.4204,0.4228,0.4242,0.4242,0.4255,0.4265,0.4271,0.4284,0.429,0.4304,0.4299,0.4305,0.4315,0.4322,0.4336,0.4321,0.4339,0.434,0.4336,0.4362,0.4364,0.4385,0.4353,0.4354,0.4354,0,0.4202,0.4214,0.4239,0.4252,0.4257,0.427,0.4284,0.4295,0.4307,0.4311,0.432,0.4322,0.4338,0.433,0.4352,0.4342,0.435,0.4355,0.4356,0.4358,0.4348,0.4365,0.4392,0.4396,0.4359,0.4359,0.4358,0,0.4217,0.4239,0.4258,0.4264,0.4279,0.4287,0.4294,0.4305,0.4314,0.4326,0.4332,0.4346,0.4354,0.4365,0.437,0.4363,0.4392,0.4384,0.4396,0.4396,0.4402,0.4402,0.4432,0.4407,0.4407,0.4406,0.4406,0,0.4241,0.4257,0.4265,0.4276,0.4293,0.4298,0.4315,0.4322,0.4331,0.4344,0.4345,0.4357,0.4363,0.4376,0.438,0.4398,0.4401,0.4405,0.4406,0.4405,0.4405,0.4411,0.4409,0.4407,0.4407,0.4407,0.4407,0,0.4261,0.4267,0.4287,0.4299,0.4302,0.4315,0.4326,0.4337,0.4342,0.4358,0.4362,0.437,0.4386,0.4392,0.441,0.4413,0.4434,0.4434,0.443,0.443,0.4442,0.4441,0.4477,0.4482,0.4453,0.4453,0.4453,0,0.4276,0.4288,0.4302,0.431,0.4317,0.433,0.4339,0.4344,0.4353,0.4367,0.4377,0.4392,0.4404,0.4428,0.4436,0.445,0.445,0.4462,0.4453,0.4451,0.4451,0.445,0.4451,0.4464,0.4464,0.4464,0.4465,0,0.4302,0.4305,0.4317,0.4331,0.4342,0.4353,0.4364,0.437,0.4377,0.4387,0.4402,0.4412,0.4431,0.4445,0.446,0.4467,0.4467,0.4467,0.4471,0.447,0.4468,0.4469,0.4435,0.4467,0.4466,0.4466,0.4466,0.4466,0.4321,0.4331,0.4343,0.4357,0.4365,0.4375,0.4386,0.4393,0.4406,0.4421,0.4423,0.444,0.4451,0.447,0.4478,0.4491,0.4488,0.4493,0.4494,0.4495,0.4496,0.4465,0.4493,0.4493,0.4493,0.4493,0.4493,0,0.4347,0.4355,0.4368,0.4383,0.4394,0.4392,0.4404,0.4413,0.4428,0.4438,0.445,0.4468,0.4482,0.4491,0.4505,0.4514,0.4514,0.4518,0.4517,0.4519,0.4498,0.4493,0.4517,0.4517,0.4517,0.4517,0.4517,0.4517,0.4363,0.4381,0.4384,0.4407,0.4414,0.443,0.4437,0.4446,0.4454,0.4474,0.4486,0.4491,0.4501,0.4516,0.4529,0.4531,0.4537,0.454,0.4543,0.4523,0.452,0.4518,0.4514,0.4542,0.4542,0.4563,0.4563,0.4563]},{"header":{"parameterUnit":"m.s-1","parameterCategory":1,"la1":30.2991,"la2":30.254,"lo1":-89.0895,"lo2":-89.0444,"dy":0.0017,"dx":0.0017,"nx":28,"ny":28,"refTime":"2025-02-08T03:00:00:Z","depth":0,"parameterNumber":3,"parameterNumberName":"V-component_of_WINDS"},"data":[0,0,0,0,0,0,0,0,0,0,0,0,0,0,0,0,0,0,0,0,0,0,0,0,0,0,0,0,0,0,0,0,0,0,0,0,0,0,0,0,0,0,0,0,0,0,0,0,0,0,0,0,0,0,0,0,0,0,2.0361,2.0362,0,2.0415,2.0415,2.0416,2.041,2.0409,2.0408,2.0407,2.0461,2.0463,2.0465,0,0,0,0,0,0,0,0,0,0,0,0,0,2.0253,2.0255,2.0361,2.0362,2.0363,2.0415,2.0415,2.0416,2.041,2.0409,2.0408,2.0407,2.046,2.0462,2.0465,0,0,0,0,0,0,0,0,0,0,0,0,0,2.0302,2.0255,2.0361,2.0366,2.0367,2.0414,2.0415,2.0416,2.041,2.0409,2.0407,2.0406,2.0459,2.0462,2.0465,2.0511,0,0,2.0476,2.0477,0,0,0,0,0,0,0,0,2.03,2.0306,2.0364,2.0366,2.0367,2.0404,2.0397,2.0448,2.041,2.0394,2.0407,2.0406,2.0443,2.0447,2.046,2.0514,2.0516,2.0476,2.0478,2.0479,2.048,0,0,0,0,0,0,0,2.0296,2.0304,2.0382,2.0365,2.0367,2.0365,2.037,2.0406,2.0425,2.0395,2.0395,2.0401,2.0443,2.0457,2.0461,2.0517,2.0476,2.0479,2.0481,2.0482,2.0611,2.0612,0,0,0,0,0,0,2.0292,2.0301,2.0381,2.0384,2.0329,2.0368,2.0374,2.0393,2.0424,2.0428,2.0402,2.0401,2.0452,2.0457,2.0463,2.0519,2.0479,2.0482,2.0484,2.061,2.0611,2.0613,0,0,0,0,0,0,2.0289,2.0299,2.0379,2.0343,2.0353,2.0371,2.0393,2.0395,2.0409,2.043,2.0433,2.0413,2.0451,2.0458,2.05,2.0521,2.0484,2.0487,2.0608,2.061,2.0612,2.0632,0,0,0,0,0,0,2.0286,2.0298,2.0316,2.0343,2.0354,2.0415,2.0394,2.0397,2.0415,2.0413,2.0441,2.0444,2.0451,2.0495,2.0503,2.0525,2.049,2.0606,2.0609,2.0612,2.0629,2.0634,2.0639,0,0,0,0,0,2.0282,2.0319,2.0317,2.0327,2.0378,2.0416,2.0422,2.043,2.0417,2.0435,2.0448,2.0443,2.0517,2.0499,2.0508,2.0532,2.0605,2.0608,2.0611,2.0627,2.0633,2.0639,0,0,0,0,0,0,2.0294,2.0323,2.0321,2.0368,2.0389,2.0415,2.0438,2.0436,2.0462,2.0459,2.0467,2.0473,2.0514,2.0527,2.0506,2.0577,2.0559,2.0564,2.0568,2.0574,2.0579,2.0575,2.0492,0,0,0,0,0,2.0302,2.0331,2.0355,2.0394,2.0405,2.0419,2.0436,2.044,2.0463,2.0472,2.0488,2.051,2.0538,2.0557,2.0584,2.0631,2.0637,2.0651,2.0656,2.066,2.0664,2.069,2.0697,2.0624,2.0624,2.0623,0,0,2.0319,2.0338,2.0356,2.0397,2.0414,2.0444,2.0427,2.0459,2.0481,2.0477,2.0517,2.0529,2.0554,2.0598,2.0619,2.061,2.0686,2.0664,2.0667,2.0669,2.0694,2.0701,2.0707,2.0626,2.0625,2.0625,0,0,2.0366,2.0383,2.0418,2.0435,2.0462,2.0471,2.0479,2.0505,2.0513,2.0554,2.0551,2.0577,2.0625,2.0643,2.0658,2.0711,2.0707,2.0719,2.0744,2.0769,2.0775,2.078,2.0799,2.0805,2.0723,2.0723,2.0724,0,2.0383,2.0429,2.0435,2.0468,2.0486,2.0483,2.0518,2.0534,2.0568,2.058,2.057,2.0631,2.0647,2.0695,2.0708,2.0721,2.073,2.0717,2.0773,2.0778,2.0783,2.0802,2.0809,2.0725,2.0725,2.0725,2.0724,0,2.0449,2.048,2.0505,2.0538,2.0558,2.0592,2.0603,2.0623,2.0625,2.0635,2.0676,2.0695,2.0726,2.0738,2.074,2.0786,2.078,2.0772,2.0753,2.0792,2.0809,2.0816,2.0727,2.0726,2.0726,2.0726,0,0,2.0505,2.0542,2.0551,2.0566,2.0594,2.0619,2.0651,2.0682,2.0699,2.0722,2.075,2.079,2.0783,2.08,2.0803,2.0825,2.0866,2.0814,2.0815,2.0823,2.0919,2.0926,2.0934,2.0863,2.0865,2.0866,2.0917,0,2.0555,2.0614,2.0621,2.0674,2.0703,2.07,2.0729,2.0749,2.0759,2.0785,2.0796,2.0825,2.0812,2.0822,2.0844,2.0856,2.0885,2.0853,2.0889,2.089,2.0884,2.0943,2.095,2.0998,2.0924,2.0925,2.0926,0,2.0621,2.0647,2.0702,2.0727,2.0739,2.0765,2.0794,2.0818,2.0841,2.0847,2.0866,2.0867,2.09,2.088,2.0926,2.0904,2.0919,2.0927,2.0929,2.0934,2.0911,2.0949,2.1013,2.1021,2.0936,2.0935,2.0935,0,2.0657,2.0705,2.0745,2.0758,2.0787,2.0806,2.0819,2.084,2.0858,2.0883,2.0894,2.0922,2.0938,2.0959,2.0967,2.0951,2.1012,2.0993,2.1018,2.1018,2.1032,2.1031,2.11,2.1041,2.104,2.104,2.104,0,2.0713,2.0747,2.0762,2.0786,2.0824,2.0831,2.0869,2.0881,2.09,2.0926,2.0925,2.0949,2.0958,2.0984,2.099,2.1027,2.1034,2.1039,2.1041,2.104,2.104,2.1051,2.1048,2.1042,2.1042,2.1041,2.1041,0,2.076,2.0771,2.0815,2.0839,2.0846,2.0873,2.0893,2.0917,2.0926,2.0959,2.0968,2.0982,2.1013,2.1022,2.1059,2.1063,2.1107,2.1105,2.1099,2.11,2.1125,2.1122,2.1204,2.1215,2.1147,2.1148,2.1148,0,2.0795,2.0822,2.0849,2.0867,2.0881,2.0909,2.0928,2.0935,2.0954,2.0982,2.1001,2.1031,2.1056,2.1104,2.1118,2.1146,2.1145,2.1171,2.1149,2.1147,2.1146,2.1145,2.1147,2.1176,2.1177,2.1177,2.1178,0,2.0857,2.0861,2.0888,2.0916,2.0938,2.0961,2.0983,2.0997,2.1008,2.1029,2.106,2.1079,2.1116,2.1146,2.1174,2.1187,2.1184,2.1184,2.1192,2.1192,2.1188,2.1191,2.1112,2.1183,2.1182,2.1182,2.1182,2.1181,2.0899,2.0923,2.0946,2.0976,2.0993,2.1013,2.1036,2.1049,2.1075,2.1106,2.1109,2.1142,2.1164,2.1201,2.1215,2.1241,2.1233,2.1244,2.1247,2.125,2.1252,2.1183,2.1246,2.1246,2.1246,2.1246,2.1246,0,2.0961,2.0976,2.1003,2.1034,2.1057,2.1052,2.1076,2.1096,2.1126,2.1146,2.117,2.1206,2.1234,2.125,2.1279,2.1296,2.1296,2.1304,2.1303,2.1306,2.1257,2.1248,2.1304,2.1304,2.1304,2.1304,2.1304,2.1304,2.0996,2.1036,2.1042,2.109,2.1104,2.1138,2.1152,2.117,2.1186,2.1227,2.1251,2.1261,2.1279,2.1308,2.1334,2.1338,2.1349,2.1358,2.1361,2.1315,2.1309,2.1304,2.1295,2.136,2.136,2.1407,2.1408,2.1408]}]]